Location: Eschertshofen
(49.3064°N, 11.5756°E)
Time: 22:25:35
(UTC+00:00)

SJ-11-01 - Pass Details

Date: 18 September 2020
Orbit: 684 x 701 km, 98.0° (Epoch: 30 October)

Event Time Altitude Azimuth Distance (km) Brightness Sun altitude
Rises 18:03:36 0° 163° (SSE) 3,067 7.3 -7.9°
Reaches altitude 10° 18:05:50 10° 163° (SSE) 2,152 6.5 -8.3°
Maximum altitude 18:10:34 86° 76° (ENE) 704 4.3 -9.1°
Drops below altitude 10° 18:15:18 10° 347° (NNW) 2,158 7.2 -9.8°
Sets 18:17:33 0° 347° (NNW) 3,077 8.0 -10.2°
